NOAA 16 DEB

Satellite information

Favourite Embed

Satellite Type and Status

DEBRISIN ORBIT

Key statistics

Satellite NOAA 16 DEB at a glance.

Uptime

9055

Days in orbit

Revolutions

≈ 14.2

Per day

Orbit

SSO

Sun Synchronous Orbit

Inclination

98.7

Latest

Satellite identification and parameters

Extended collection of information and parameters for NOAA 16 DEB.

Object identification

Identified? True

Debris? True

Object name: NOAA 16 DEB

International designator: 2000-055NF

Object number (NORAD): 41531

Object ID (CCSDS): 41531

Country: UNITED STATES OF AMERICA (US)

Current information (Y/N): Y

RCS size: SMALL

Orbital parameters

Period: 101.671 minutes

Inclination: 98.6604 deg

SMA: 7215.94 km

Apoapsis: 860.974 km

Periapsis: 814.636 km

RAAN: 213.3118 deg

Eccentricy: 0.0032108

Argument of periapsis: 135.1583 deg

Mean anomaly: 225.2194 deg

Mean motion: 14.16326449 rev/day

Mean motion (dot): 0.00001912 rev/day2

B* drag term: 0.00098011 1/REarth

Two-line elements (TLE)

Creation date: July 5, 2025, 7:06 a.m.

Reference frame: TEME

Reference center: EARTH

Epoch: July 4, 2025, 8:17 a.m. UTC

TLE line 0: 0 NOAA 16 DEB

TLE line 1: 1 41531U 00055NF 25185.34555242 .00001912 00000-0 98011-3 0 9990

TLE line 2: 2 41531 98.6604 213.3118 0032108 135.1583 225.2194 14.16326449473906

Live tracking on map

Real-time ground track for satellite NOAA 16 DEB.

In-orbit conjunctions

A list of the most updated potential collisions computed for object NOAA 16 DEB.

Target Orbit TCA Probability of collision Miss distance Type
DMSP 5D-2 F8 DEB SSO 2025-05-24 06:32:54 0.001110184 35.0 (m) DEBRIS
RADCAL LEO 2024-12-19 06:27:24 0.000110668 409.0 (m) PAYLOAD
CZ-6A DEB LEO 2024-12-08 22:31:55 0.0001832789 131.0 (m) DEBRIS

Associated space launch

The NOAA K, L and M POES satellites begin the fifth generation of improved environmental monitoring in support of NOAA missions. The instrument payload has significant improvements and additions/deletions. The instrument changes have effected the spacecraft subsystems and data formats.

NOAA 16 DEB was lifted into orbit during the mission ‘Titan II SLV | NOAA 16’, on board a Titan II SLV space rocket.

The launch took place on Sept. 21, 2000, 10:22 a.m. from Space Launch Complex 4W.

For more information about the launch, click the button.

Launch to space Titan II SLV | NOAA 16
Titan II SLV | NOAA 16

Agency: N/A

Status: Launch Successful

Launch date: Sept. 21, 2000, 10:22 a.m. UTC

Rocket: Titan II SLV

Launch pad: Space Launch Complex 4W

Location: Vandenberg SFB, CA, USA

...

Latest news about this satellite

There are no fresh news available about this satellite. Check back as we update our databases every day.


Newsletter sign-up

Weekly statistics, charts and insights to help you stay on top of the space industry.